Wind_Speed
13 13 12 12 12 12 11 11 11 10 10 10 10 10 11 11 11 11 11 10 10 9 9 10 10 11 10 10 11 11 12 13 12 8 10 13 12 13 8 7 13 14 16 18 19 15 9 8 7 7 7 3 2 2 4 3 1 1 2 2 2 0 2 4 6 3 5 9 10 9 8 11 12 9 7 9 11 11 10 9 10 10 11 16 20 23 24 22
13 13 13 13 13 13 12 12 12 11 11 11 11 10 11 10 11 11 10 10 9 8 8 9 10 10 10 10 10 10 12 13 11 11 16 15 7 11 14 9 15 19 19 21 20 16 11 9 9 8 6 3 2 2 3 3 2 2 2 2 3 1 1 2 4 3 5 11 11 8 9 11 12 10 7 9 12 11 11 10 12 14 14 19 23 23 22 22
13 13 13 13 13 13 13 13 13 12 12 11 11 11 11 11 11 11 10 9 8 8 8 8 9 10 10 9 9 9 11 10 6 7 9 8 8 10 14 14 17 21 20 22 22 17 14 13 13 9 5 3 2 2 3 2 1 2 2 2 3 2 2 4 3 3 6 11 12 9 10 10 9 8 6 10 13 11 10 10 11 14 16 19 21 22 22 21
12 12 12 13 13 13 13 13 13 13 13 12 12 11 11 11 11 10 10 8 8 8 7 8 9 9 9 8 7 9 9 5 2 2 4 3 7 11 14 17 19 21 20 21 19 15 15 15 13 8 4 3 2 2 2 3 1 1 1 3 4 2 2 4 3 6 8 9 11 10 11 11 8 6 8 13 11 8 8 10 12 16 20 20 20 21 21 20
12 12 12 12 13 13 13 13 13 13 13 12 12 12 11 11 10 10 10 8 7 7 7 8 8 8 7 6 6 7 6 2 1 2 3 4 5 14 16 19 21 19 19 19 15 13 15 14 10 5 3 3 3 2 2 4 3 1 1 3 2 2 1 4 5 7 8 7 10 11 11 10 8 7 9 11 7 6 7 8 13 17 20 21 21 21 20 19
12 12 11 12 13 13 13 13 13 13 13 13 12 12 11 10 10 10 10 9 7 6 7 7 8 7 4 4 5 5 3 1 3 5 3 5 6 18 19 21 21 18 19 17 14 13 13 11 8 6 4 2 3 3 1 4 5 1 1 2 1 3 3 7 7 7 8 9 10 10 10 9 9 8 6 5 4 7 8 9 13 16 19 21 22 21 18 17
12 11 11 12 12 13 14 14 14 14 13 13 12 12 11 10 10 10 10 9 7 6 6 7 7 4 2 3 3 2 1 3 7 8 6 5 9 22 21 22 22 18 19 18 13 12 12 10 8 6 4 2 2 3 1 3 5 3 3 1 2 2 5 7 7 6 7 9 9 9 9 9 10 9 5 5 6 9 11 12 15 17 19 20 19 18 17 17
12 11 11 11 13 14 14 14 14 14 13 13 12 12 11 10 10 9 9 8 7 7 6 6 5 1 1 2 1 2 1 4 9 9 6 1 15 24 22 24 23 19 20 18 13 10 11 10 8 6 4 3 1 1 2 3 4 3 3 1 4 4 5 6 6 6 7 7 8 10 10 7 8 9 6 5 8 12 13 15 16 18 18 17 16 16 16 16
12 11 11 11 13 14 15 14 14 13 13 13 13 12 11 9 9 8 7 8 7 6 5 4 2 2 3 2 1 1 1 5 10 7 1 8 19 24 22 24 24 19 17 15 12 10 9 8 8 5 2 2 1 2 1 2 1 4 4 2 4 6 6 6 6 7 6 5 6 11 10 7 6 8 6 5 10 14 14 16 16 17 17 15 14 15 15 15
13 11 11 12 13 14 14 14 14 14 13 12 13 12 10 8 8 7 6 7 7 5 2 1 2 3 2 1 0 1 2 7 9 3 6 13 19 23 21 22 25 20 15 11 10 9 5 5 6 3 1 2 2 3 1 2 3 6 6 5 6 7 6 5 6 6 5 4 5 10 10 6 3 3 4 7 12 15 16 16 16 16 15 14 13 13 14 15
13 12 12 12 13 14 13 14 14 14 13 12 12 11 10 8 7 6 5 6 5 3 0 3 3 3 1 0 1 1 2 8 11 3 11 16 18 22 19 19 22 20 15 9 7 8 4 4 4 2 1 1 2 2 3 4 7 9 9 10 7 7 7 5 5 5 4 3 3 9 11 7 2 2 6 10 13 15 16 16 16 15 13 13 14 12 12 13
13 12 12 13 14 14 14 14 14 13 13 12 11 11 9 8 6 5 4 4 3 1 2 3 4 4 1 1 4 4 3 6 11 4 14 17 17 19 15 17 19 19 17 10 8 9 5 4 3 3 1 2 2 1 3 3 8 9 7 8 6 5 6 4 4 2 1 3 3 6 8 5 4 4 9 13 13 15 16 16 16 14 12 12 13 11 10 13
13 12 12 13 15 15 15 14 14 13 13 12 10 10 8 7 5 3 2 2 1 2 3 3 5 4 0 2 3 3 5 7 6 4 14 15 13 11 10 15 14 14 15 12 11 12 7 5 2 2 2 2 2 1 1 4 8 7 4 5 5 4 3 2 3 2 1 4 2 1 2 4 5 6 10 13 14 16 15 15 15 13 12 11 11 10 11 14
13 12 13 14 15 15 15 14 14 14 13 11 9 8 7 4 2 1 1 1 1 3 4 5 6 3 1 4 3 2 2 2 1 5 13 13 11 10 9 12 10 10 9 8 11 13 9 3 4 2 2 1 2 2 2 6 7 5 4 4 3 3 3 2 3 4 4 4 1 2 1 4 6 8 11 12 14 16 15 14 15 13 12 11 10 10 11 13
13 12 12 14 15 16 16 15 15 14 12 9 7 6 5 2 0 1 1 2 4 6 7 6 5 2 2 4 3 2 0 1 1 4 10 13 11 9 9 11 10 11 9 8 8 8 9 4 1 0 1 1 1 1 5 6 4 3 3 3 2 3 4 2 3 4 4 3 1 1 1 3 6 9 10 11 14 15 14 14 14 13 13 12 10 10 10 11
14 13 12 14 15 16 16 15 15 14 11 7 5 3 2 2 3 3 3 4 6 8 7 4 2 1 2 2 1 1 1 1 2 3 9 13 9 7 12 13 10 9 7 6 7 6 6 6 1 1 1 1 1 2 6 5 3 3 2 3 4 4 4 2 4 5 4 5 2 1 1 2 4 8 9 11 14 14 13 14 14 14 13 12 11 10 9 10
15 13 13 14 15 16 15 15 15 12 10 7 2 1 2 3 5 4 3 4 7 8 5 2 1 2 2 2 1 1 1 2 3 3 11 11 6 10 14 10 7 8 5 4 3 4 5 3 1 1 1 1 0 2 5 4 4 4 2 2 4 5 6 4 4 6 7 8 6 3 2 1 4 9 8 10 14 14 13 14 14 13 12 11 10 10 10 10
16 13 13 14 14 15 15 15 15 10 8 6 1 3 4 5 5 5 4 6 7 5 2 1 1 2 2 2 1 1 3 2 3 5 10 9 7 12 12 7 7 9 6 4 2 1 2 1 0 1 1 1 2 3 4 2 3 6 4 2 3 6 6 6 5 7 11 12 9 7 4 1 6 10 10 9 13 15 14 13 13 12 12 11 10 10 10 10
18 14 13 13 14 15 15 15 14 8 6 4 5 7 6 5 5 5 5 5 3 2 1 1 2 1 1 1 3 5 6 2 1 5 10 11 11 11 10 10 10 8 7 5 2 0 2 2 1 3 4 3 2 3 2 1 3 8 7 3 2 4 4 5 5 7 12 11 9 9 6 4 7 11 11 10 11 13 13 12 11 11 11 11 10 10 10 10
18 15 13 13 13 14 14 15 12 6 5 3 7 6 4 2 1 2 2 2 4 4 4 1 3 3 4 2 4 6 4 0 1 5 11 14 13 11 8 7 7 5 5 6 5 1 2 4 5 5 3 3 2 3 1 1 4 5 5 4 1 2 3 5 6 9 12 8 7 9 6 5 7 10 13 10 9 12 13 13 13 12 12 11 11 11 11 11
18 15 13 12 13 13 13 14 9 5 5 4 6 2 1 0 1 2 1 3 5 6 6 4 3 5 7 4 4 4 2 3 5 5 12 14 13 9 4 3 6 6 3 5 7 2 2 6 7 4 2 2 2 3 2 2 5 5 4 4 3 3 2 3 5 11 12 7 5 8 6 6 7 9 12 9 10 14 16 15 15 14 13 10 11 12 11 10
18 15 12 12 13 12 14 12 4 5 5 4 5 1 1 1 3 3 1 3 4 3 4 4 3 6 8 7 7 3 1 3 6 5 10 11 6 3 2 3 6 6 4 6 7 4 4 7 6 3 2 3 2 2 2 2 4 4 4 5 3 3 4 4 4 10 11 6 4 8 6 5 6 8 12 11 10 11 13 16 16 16 14 11 12 12 11 10
18 14 12 11 12 12 14 9 3 4 4 3 4 2 1 4 4 6 2 3 4 0 1 2 2 4 5 4 5 6 3 2 4 4 9 10 3 1 5 4 5 7 6 8 8 6 5 4 3 5 4 5 3 3 4 3 3 3 4 5 2 5 4 2 5 10 9 4 3 8 5 2 4 7 10 11 9 6 8 10 11 12 13 13 13 11 11 12
18 14 11 11 10 12 12 5 2 5 5 2 5 2 4 8 2 8 3 1 2 2 1 3 3 3 3 1 5 7 3 2 3 6 10 9 4 2 4 4 6 7 5 7 9 8 4 1 3 7 5 4 3 4 4 3 3 2 4 5 4 5 3 1 6 10 7 2 3 8 4 2 5 7 8 9 8 7 7 7 6 8 10 10 12 12 12 13
17 13 10 10 9 10 10 2 2 6 7 3 4 1 8 10 0 7 3 0 0 2 1 2 2 3 2 0 4 3 1 2 1 5 10 9 6 4 3 2 3 5 3 6 8 7 4 3 5 6 5 4 3 3 4 4 3 2 5 8 7 6 5 6 11 10 5 3 6 8 3 2 6 8 10 9 9 10 10 11 10 8 8 9 11 13 13 13
15 11 10 9 8 9 6 1 0 7 6 3 2 3 8 9 1 7 1 1 2 2 1 1 0 1 0 1 3 3 3 4 1 3 10 10 6 3 3 1 0 3 4 5 4 2 2 3 5 5 5 5 4 3 3 3 3 2 3 7 9 7 9 12 13 8 3 2 6 9 5 1 4 8 11 10 11 13 10 12 15 11 9 9 10 11 12 12
13 10 9 9 8 7 4 1 4 6 3 2 2 5 8 8 1 5 0 1 3 2 3 1 1 1 1 1 2 3 3 3 2 4 5 7 3 0 3 3 1 3 3 3 3 2 3 4 3 3 5 5 4 4 4 5 4 1 2 4 8 8 10 14 12 6 2 2 5 8 5 2 2 5 10 13 13 14 11 12 15 15 13 11 9 11 12 13
12 10 9 9 9 9 6 5 6 4 2 2 4 6 8 4 3 2 2 2 2 2 1 1 2 1 1 1 1 0 1 2 3 3 1 4 3 1 3 6 5 5 3 4 5 2 3 6 6 5 4 4 4 3 6 7 4 1 3 3 5 7 9 11 8 3 2 3 4 7 5 3 2 2 8 12 12 14 15 14 15 16 16 14 11 11 12 13
11 9 9 9 10 9 7 8 7 3 3 4 6 7 5 2 4 1 1 2 2 1 0 2 2 2 2 1 2 2 2 1 1 1 1 3 2 1 2 4 5 7 3 2 5 2 1 4 5 6 5 4 5 3 7 10 4 1 5 5 5 5 6 6 4 2 3 3 4 8 9 5 2 3 7 10 11 15 16 14 15 17 16 16 14 12 12 11
10 9 8 8 9 8 8 9 6 3 5 7 8 6 1 4 2 0 2 3 2 1 0 2 2 2 1 2 2 3 2 2 2 2 2 1 2 4 2 2 3 5 3 1 3 1 1 0 1 4 4 4 4 3 5 7 4 5 7 7 8 7 6 4 2 2 3 3 2 8 11 6 2 3 7 9 7 10 12 11 13 17 17 16 14 13 12 11
10 9 8 8 9 8 6 6 5 5 7 7 6 2 3 2 0 2 4 2 2 1 1 1 2 1 1 2 1 2 2 2 2 1 3 2 2 3 1 2 3 2 2 1 2 1 1 2 2 3 4 3 3 2 2 2 1 2 4 6 6 5 4 3 2 1 3 2 2 4 10 8 5 2 5 8 5 5 10 12 15 17 17 16 14 14 13 12
9 8 7 7 9 9 6 5 7 8 7 6 4 1 2 0 2 2 2 1 1 2 1 1 2 1 2 1 1 1 1 1 2 1 3 1 3 3 1 0 2 2 2 3 2 1 3 4 2 2 4 5 5 4 3 3 2 3 4 6 5 3 3 2 2 2 4 2 3 1 7 6 5 1 2 7 8 7 9 12 14 17 17 17 15 13 11 11
8 6 6 8 9 10 8 7 8 7 6 4 1 1 1 3 4 2 2 1 2 2 1 1 2 1 1 1 1 1 1 1 2 1 2 1 1 2 2 2 1 1 1 1 2 2 3 2 2 3 3 6 8 6 4 4 5 6 6 6 6 4 4 3 2 1 3 3 2 3 5 3 4 1 2 3 8 9 9 10 13 15 17 16 15 12 11 11
6 5 7 8 8 8 7 7 6 5 4 1 2 1 3 4 2 2 2 2 1 2 1 1 1 1 2 1 1 1 1 3 2 2 2 1 2 2 2 3 1 0 1 1 2 2 3 2 5 6 3 6 10 9 5 4 5 6 6 5 5 5 4 3 4 4 2 2 4 5 4 3 2 1 2 4 6 7 9 10 11 13 14 14 13 12 11 11
5 5 6 6 8 9 8 6 5 4 3 0 2 3 4 3 1 2 1 2 2 2 2 1 1 2 2 1 2 1 1 3 3 2 3 2 2 1 1 2 2 1 1 2 1 1 2 3 2 1 0 7 11 8 4 5 4 4 4 5 4 5 4 2 2 3 1 2 3 3 3 2 0 1 2 4 3 2 5 9 10 12 13 12 12 13 12 11
4 5 5 8 11 11 8 5 4 4 3 1 4 4 2 1 1 1 1 2 2 3 3 1 2 2 2 1 2 3 2 2 1 2 3 2 1 2 1 1 1 0 2 2 2 1 1 2 1 1 2 7 7 6 7 5 3 4 4 6 2 1 3 2 1 1 1 3 3 3 4 1 1 2 1 3 4 3 3 9 10 11 13 14 13 13 13 11
4 4 5 10 14 11 6 4 4 4 2 2 5 3 1 1 1 2 2 2 1 1 1 1 2 2 1 1 2 3 3 1 0 1 2 1 1 3 3 2 0 1 2 2 2 1 2 3 1 1 4 4 1 2 5 3 3 4 5 6 4 1 1 0 2 2 2 4 3 3 6 3 2 3 1 4 5 5 3 7 10 10 13 14 13 13 13 11
4 3 3 11 16 9 3 5 7 4 2 3 4 2 0 1 0 2 2 2 1 1 2 2 2 1 0 1 1 3 3 0 1 1 2 1 1 1 3 2 1 1 2 2 2 1 2 4 1 1 2 1 1 3 4 2 1 1 2 6 5 3 4 2 2 3 4 4 2 3 4 4 4 3 1 3 4 3 2 5 8 10 12 12 13 14 14 13
3 2 1 9 13 7 4 8 8 3 3 4 2 1 1 2 1 2 1 1 0 1 3 2 1 1 1 1 1 1 2 1 1 1 1 2 1 1 2 2 1 2 2 1 1 1 1 2 0 2 0 1 2 6 6 5 3 1 1 5 3 1 4 4 2 2 3 3 3 3 2 3 3 1 2 2 2 1 3 4 5 8 9 10 11 12 13 12
3 1 1 7 12 7 6 8 5 3 3 3 1 0 1 2 2 2 1 1 1 1 2 1 1 2 1 0 1 1 3 3 2 2 1 1 1 1 1 1 2 4 3 0 1 1 1 1 1 0 1 2 3 4 5 5 6 5 5 6 4 0 1 2 1 0 1 3 3 4 3 2 1 1 1 1 1 1 2 4 4 5 5 6 8 9 10 10
2 1 0 9 12 7 6 5 4 2 1 2 0 1 1 3 4 4 3 2 2 1 2 1 1 2 1 1 1 1 2 3 2 2 2 1 0 0 1 1 1 3 2 1 1 0 0 1 2 2 1 2 1 2 1 2 2 4 6 7 7 4 3 5 4 1 1 2 2 3 4 2 3 2 3 2 3 3 3 4 4 4 4 5 5 8 10 10
1 1 1 9 10 4 2 3 2 1 1 1 1 2 2 3 3 4 5 4 2 2 2 2 2 2 2 1 2 2 2 3 2 1 2 2 1 1 2 3 1 2 1 1 0 1 1 1 1 3 2 3 3 2 1 1 1 1 2 3 5 5 5 7 7 4 3 2 1 1 3 1 2 2 3 2 3 4 3 4 5 5 5 6 6 8 10 11
1 0 2 9 9 2 1 3 1 1 1 1 1 1 2 2 2 3 4 4 4 2 3 3 1 2 3 2 1 2 2 2 2 2 1 2 1 1 4 5 2 2 1 0 1 0 1 0 1 2 2 1 1 2 3 2 1 2 3 3 0 3 2 3 2 3 5 4 2 3 3 1 2 3 3 3 4 5 4 5 6 6 5 7 8 9 9 11
1 1 2 9 9 1 1 3 1 2 2 2 2 3 2 2 3 4 4 5 4 2 2 3 2 2 3 2 1 3 2 1 2 3 1 1 2 1 3 5 3 0 1 1 0 1 1 0 1 1 1 3 4 4 4 2 2 2 2 3 3 2 0 2 2 2 4 3 2 5 4 2 3 3 4 4 7 6 5 6 6 6 5 6 7 8 9 10
1 1 2 6 10 5 2 1 0 1 2 2 3 4 3 1 2 3 3 4 4 2 2 2 2 2 2 2 3 4 5 3 2 2 1 1 1 1 2 5 4 3 2 2 2 1 0 1 1 2 2 3 3 2 1 2 4 3 2 5 5 2 1 2 3 3 4 2 2 3 2 3 4 5 7 7 7 7 6 6 6 5 5 6 6 7 8 8
0 1 1 3 5 5 2 1 1 1 1 1 1 3 3 2 1 1 0 2 3 3 3 2 3 2 3 4 4 5 7 5 3 2 1 2 2 1 3 4 4 5 4 3 3 1 1 2 2 2 4 4 2 1 2 3 3 4 5 8 7 3 3 2 3 4 4 4 3 2 3 7 9 8 9 10 8 7 7 6 6 5 5 6 6 6 6 6
1 1 1 1 1 2 2 2 3 2 0 0 0 2 3 2 2 2 1 2 3 3 2 3 4 2 2 3 3 4 5 5 4 3 2 2 2 2 4 3 4 9 7 4 3 1 2 3 2 4 8 7 4 2 2 1 3 6 8 9 9 6 4 3 4 2 4 6 4 3 7 10 11 11 11 12 9 8 8 6 6 6 5 6 6 5 6 5
1 1 0 1 1 1 1 2 3 2 2 1 1 1 2 3 3 3 2 1 2 4 2 3 7 7 3 1 2 3 3 3 4 3 2 2 2 2 3 2 4 8 6 3 4 2 2 3 1 1 5 7 5 4 4 4 3 3 8 11 11 9 5 3 3 2 1 3 2 8 12 10 10 13 12 11 10 9 9 7 7 7 6 7 7 6 6 5
1 2 1 1 0 1 1 2 2 1 3 2 2 2 2 3 4 2 2 2 2 5 4 3 5 8 5 2 2 2 2 2 3 2 1 2 2 2 3 2 3 7 5 4 4 2 1 1 1 2 4 5 4 3 6 6 3 3 10 13 12 10 7 6 5 5 5 3 2 10 12 7 8 12 11 9 9 9 9 7 7 8 8 8 8 8 8 7
1 1 0 1 1 1 1 1 0 1 2 2 2 2 1 2 3 2 1 3 3 3 3 3 3 4 5 5 5 4 2 1 1 2 1 1 1 1 2 1 2 5 6 4 3 2 1 0 1 2 2 3 5 7 9 6 3 5 13 15 15 11 8 7 5 4 6 4 5 10 11 8 8 11 10 9 9 9 10 8 8 8 9 9 9 9 9 9
2 0 1 0 1 2 1 1 1 1 1 1 1 1 1 1 2 1 2 2 2 2 2 2 2 1 3 6 7 6 2 2 2 3 2 1 1 2 2 1 2 3 5 4 2 3 3 0 1 1 2 1 4 7 10 7 1 4 13 16 14 10 6 5 4 4 3 3 9 9 7 7 9 11 11 9 10 10 11 10 9 8 8 9 10 9 10 10
3 0 0 0 0 2 1 1 1 1 1 1 1 1 0 1 0 0 2 1 1 2 1 1 1 1 3 6 7 6 3 3 2 2 1 1 1 2 2 2 2 2 3 3 2 2 2 1 1 1 2 1 4 5 7 7 3 3 7 8 8 7 5 3 3 6 4 3 7 4 3 7 11 12 12 11 11 11 10 9 8 8 9 9 9 10 10 11
Wind_Direction
344 343 341 338 337 337 337 336 335 334 333 330 327 324 322 321 319 318 317 316 318 318 317 319 321 322 322 323 321 320 324 321 314 297 251 257 254 227 227 191 177 169 157 162 163 146 128 135 136 142 152 149 146 157 175 194 218 250 293 325 341 173 189 179 174 165 138 145 142 144 140 130 130 119 116 114 101 102 100 91 90 88 98 112 123 133 140 144
342 341 338 338 338 336 336 335 333 332 330 329 326 322 321 319 317 317 315 314 314 316 318 317 321 324 323 323 321 328 332 322 309 282 261 261 258 211 211 192 171 172 159 159 162 149 139 148 152 150 150 144 148 166 175 180 199 248 293 338 346 3 186 162 139 143 149 147 138 134 136 131 131 129 137 132 118 116 109 105 106 104 109 117 128 137 142 146
341 339 337 338 338 336 336 333 332 331 329 328 326 323 320 317 316 315 312 310 311 316 317 318 323 323 321 321 329 340 334 323 295 271 285 263 230 207 194 181 175 177 168 166 169 162 152 150 155 153 145 144 141 168 188 187 197 243 278 348 12 24 111 109 105 122 131 139 132 126 129 121 126 136 144 135 128 132 130 131 129 127 132 133 137 143 145 149
341 339 338 338 337 337 337 334 332 330 329 328 326 325 321 318 315 313 312 308 310 316 317 321 322 319 321 323 338 348 329 306 266 278 15 59 187 195 183 172 176 178 171 169 168 162 150 144 154 155 142 145 140 170 202 199 213 196 275 5 50 65 96 116 142 117 113 127 123 122 126 120 126 135 139 136 133 143 150 151 148 144 144 141 144 148 149 151
340 339 340 340 339 339 338 336 334 331 330 328 327 325 322 320 316 314 311 307 311 315 318 321 319 318 322 334 351 351 327 231 56 357 13 22 169 178 175 169 174 175 170 167 157 152 148 145 151 151 155 150 146 180 215 197 219 237 280 4 97 186 134 136 154 122 114 114 111 125 133 129 129 126 140 143 140 151 155 157 151 147 147 146 147 149 151 152
338 340 342 342 341 340 341 340 336 333 330 328 327 324 323 322 317 313 308 307 311 311 319 319 315 317 325 357 5 359 327 222 340 327 319 331 188 170 171 170 167 168 167 155 141 148 149 153 162 151 161 165 171 202 198 186 212 252 12 23 173 215 154 141 148 128 125 124 121 130 131 127 126 122 133 117 91 128 136 144 144 143 145 145 146 149 153 155
339 342 343 342 342 342 343 341 337 333 330 328 326 324 326 326 318 310 306 303 306 312 320 317 313 315 350 14 11 19 307 274 326 325 326 323 180 167 170 167 159 158 160 149 139 152 152 160 171 149 153 160 184 218 211 179 202 250 340 45 158 153 140 142 142 135 127 124 121 125 129 131 132 133 127 82 92 125 129 137 139 139 144 145 145 149 153 154
342 343 343 345 344 343 343 341 337 333 331 329 327 326 328 328 318 308 305 300 302 314 317 312 312 309 70 46 349 356 241 280 331 339 339 214 165 164 166 162 158 152 154 157 147 148 155 160 164 149 169 173 125 221 188 167 183 218 283 200 142 117 136 136 129 134 114 108 120 123 123 118 125 134 120 95 121 132 132 137 138 139 145 150 149 150 152 153
344 342 344 349 345 342 341 340 339 338 337 332 327 328 327 324 316 308 302 299 300 311 318 311 317 106 87 62 341 288 256 323 335 343 27 163 160 162 163 160 164 154 145 158 155 151 158 160 165 157 177 167 81 8 167 175 151 191 207 175 142 127 136 133 128 138 114 111 131 120 112 98 112 129 110 107 134 134 134 140 142 144 149 153 152 152 154 155
343 342 347 350 344 340 339 340 342 341 340 334 327 325 323 315 309 306 297 297 301 304 322 109 116 101 87 59 193 219 13 6 358 0 160 164 161 160 160 160 167 161 140 145 156 160 164 159 157 140 61 90 44 5 114 149 121 163 162 114 113 115 113 115 123 128 112 124 137 120 118 103 105 163 127 131 142 137 138 143 147 151 154 156 154 155 158 157
345 347 350 348 342 339 342 345 345 341 339 335 326 319 314 305 301 299 289 293 299 294 139 135 135 125 121 58 223 214 39 26 15 24 164 161 160 161 162 163 169 167 148 135 155 163 147 145 146 131 158 45 348 26 85 117 130 146 134 97 80 89 84 76 105 120 120 137 131 115 116 108 117 196 136 142 149 142 142 147 152 156 157 158 156 156 160 161
349 351 350 346 342 340 344 347 344 341 338 332 324 315 307 304 298 288 285 294 289 215 134 147 146 141 132 293 228 231 281 336 0 40 161 157 156 161 164 163 170 175 162 145 160 164 124 103 158 173 114 356 309 71 78 138 145 147 135 104 87 92 85 74 106 117 142 157 153 114 112 135 167 145 133 145 151 146 145 150 155 158 159 160 159 158 164 167
351 351 350 347 344 342 344 346 345 342 336 328 321 314 308 308 300 275 273 290 206 131 126 149 152 148 187 266 230 263 287 295 344 106 160 161 153 150 159 162 166 177 175 169 169 172 151 84 78 138 83 356 338 13 287 188 163 152 135 117 119 122 104 86 117 103 129 154 155 82 141 170 164 139 142 151 153 149 149 155 158 161 162 163 161 162 170 174
353 353 351 347 344 343 344 345 346 342 334 326 319 316 318 319 298 241 264 288 119 126 133 140 148 144 262 265 268 333 301 260 349 142 165 170 146 122 141 157 149 147 153 165 173 184 185 121 25 106 117 350 341 329 158 157 169 160 137 136 139 150 142 133 136 127 150 161 43 347 213 173 155 147 150 156 158 154 154 160 161 163 165 165 168 167 170 178
355 355 351 346 343 343 344 345 347 345 338 329 321 323 331 348 67 159 139 119 110 117 127 133 146 164 283 274 287 3 27 174 102 162 179 177 152 121 136 146 138 136 120 108 137 171 188 179 335 219 134 158 263 247 133 133 166 168 154 157 155 161 144 160 194 168 169 168 50 345 194 157 152 155 155 160 165 160 158 164 165 167 168 169 173 173 172 178
355 354 351 346 342 342 345 347 349 349 345 336 321 330 0 66 99 119 117 115 115 118 127 139 160 216 270 306 3 40 52 54 58 145 180 179 167 138 136 134 124 135 130 105 107 121 159 170 150 32 36 189 220 156 140 135 153 185 241 173 153 158 148 167 206 200 180 156 176 268 146 120 147 157 153 162 172 167 161 165 168 169 170 172 174 177 177 179
352 352 350 343 340 343 345 348 353 353 350 344 322 68 85 109 111 108 112 120 122 126 131 146 185 266 265 306 352 61 23 29 48 126 168 172 175 148 134 124 110 118 122 115 103 101 136 161 149 114 72 157 213 174 169 164 166 189 244 141 144 154 157 162 191 205 184 168 186 211 175 92 138 157 156 165 175 174 170 168 170 171 172 174 176 180 182 182
350 348 346 341 340 342 344 349 354 356 356 353 123 126 107 118 105 86 102 121 126 142 151 164 227 252 235 288 344 325 318 330 67 117 153 151 154 149 134 121 123 122 114 111 104 98 139 133 344 188 189 170 189 201 189 160 170 177 176 154 135 155 176 176 172 181 179 178 183 188 199 154 144 159 163 168 177 182 180 171 170 174 175 175 178 183 186 188
349 343 342 340 339 341 343 349 355 4 9 22 124 126 114 112 103 89 98 118 143 226 274 189 218 299 271 278 304 307 314 299 112 123 143 141 142 135 117 121 126 127 137 148 153 148 156 143 162 207 207 184 183 211 230 296 195 174 166 170 143 156 182 181 168 165 174 181 185 185 191 170 158 166 171 170 177 185 183 177 175 177 180 181 182 187 190 195
348 340 338 337 338 340 342 348 357 15 24 97 137 127 109 90 86 98 110 175 217 258 287 225 186 276 290 282 305 316 329 123 111 135 148 145 137 120 101 119 125 128 151 151 146 165 193 178 196 210 183 143 161 188 170 115 165 151 142 141 171 209 160 162 167 166 178 184 184 187 182 170 172 174 177 169 166 183 188 185 185 183 185 185 185 191 194 200
348 338 335 335 337 339 340 346 3 35 31 142 163 132 96 98 340 330 302 239 227 235 254 246 205 259 276 278 293 327 14 91 75 119 154 148 141 132 108 150 146 141 148 126 121 121 205 201 207 205 171 151 158 158 114 82 126 132 133 102 355 284 150 135 167 168 184 195 178 184 184 178 182 179 179 170 168 186 192 191 192 190 187 185 189 194 196 201
348 338 333 335 337 339 339 344 18 56 41 149 184 238 184 260 288 268 287 290 265 223 236 252 256 267 269 265 254 241 75 106 90 111 156 153 155 151 140 187 157 134 133 133 130 138 187 215 212 154 157 162 110 125 133 82 124 141 124 87 0 272 131 100 163 167 182 204 177 183 193 181 180 181 179 181 185 190 194 195 197 193 188 188 191 194 197 200
347 337 332 335 338 340 338 342 53 49 36 168 199 207 260 328 273 219 195 306 287 244 185 218 231 252 264 268 212 183 164 146 125 140 170 163 155 175 151 154 139 130 147 156 160 170 183 232 202 133 159 166 121 127 140 125 142 152 127 125 192 217 160 100 164 169 178 201 175 178 193 180 176 186 184 191 196 192 196 197 194 194 194 193 193 195 199 199
346 337 331 334 341 341 339 350 95 14 1 237 216 206 352 354 277 203 193 316 286 294 229 212 222 225 265 328 161 170 159 155 153 154 175 165 125 162 157 130 138 139 144 148 157 177 179 69 110 132 158 172 146 140 154 176 184 174 182 185 194 191 197 75 148 164 169 173 167 163 167 223 198 198 195 193 194 194 201 199 188 189 194 194 194 199 203 203
345 335 329 333 344 346 347 37 134 353 345 261 223 318 354 359 39 179 184 322 219 303 225 181 227 211 253 45 154 191 164 140 154 147 169 168 139 149 144 129 161 146 139 137 149 184 187 129 131 136 144 164 179 175 177 205 211 207 207 212 217 189 155 130 145 158 167 190 191 179 187 217 194 205 203 187 191 201 202 206 205 192 187 192 196 202 206 207
343 334 329 331 342 353 358 122 284 336 328 235 230 328 349 355 110 160 176 323 98 357 318 137 206 187 220 130 155 237 177 132 26 132 167 172 147 139 148 146 84 137 156 141 141 201 161 141 158 156 149 153 184 212 182 189 220 242 201 204 214 191 144 146 159 170 190 189 186 199 232 242 184 211 205 184 194 204 200 209 213 202 192 194 197 202 206 207
342 334 330 330 336 347 346 256 310 321 300 220 262 306 337 346 150 155 262 109 103 359 301 316 349 67 45 146 180 235 167 119 87 121 170 181 156 88 164 162 147 141 150 147 171 197 141 150 162 155 155 158 195 213 176 186 217 240 78 174 194 181 158 162 172 187 203 105 150 197 239 275 227 213 195 188 198 206 205 212 215 211 204 199 197 200 203 206
342 334 330 328 329 333 326 303 306 291 252 270 281 309 335 347 146 163 290 109 79 326 280 333 311 312 320 164 139 44 104 87 135 129 179 176 159 333 172 176 173 143 138 187 189 160 146 179 178 164 175 195 214 204 164 183 223 340 77 132 173 180 173 171 179 188 167 151 171 190 209 240 240 160 178 186 198 212 214 213 213 212 209 203 199 200 202 205
342 331 326 325 324 327 322 308 301 266 260 292 303 320 336 110 137 212 280 85 24 317 166 342 321 317 314 131 64 32 69 43 122 100 48 154 142 13 152 169 155 133 113 225 204 160 149 203 187 175 192 216 209 189 170 181 202 112 115 110 119 139 143 151 176 159 153 213 215 186 195 232 229 143 171 183 200 218 216 212 211 211 210 206 201 199 198 198
340 324 318 319 319 321 316 308 298 274 295 310 317 325 102 135 148 262 63 56 352 314 244 311 319 314 287 137 53 15 49 56 45 75 94 128 57 43 77 108 110 128 99 14 225 201 42 55 171 188 205 216 206 191 176 178 164 122 125 110 103 116 113 105 118 137 182 232 212 180 195 229 260 165 178 188 204 218 209 204 207 207 207 205 201 198 194 191
334 316 311 314 314 310 308 311 309 311 318 320 326 343 130 130 304 80 64 39 300 319 351 335 331 332 65 131 121 22 45 49 25 102 136 151 109 82 109 145 113 137 138 157 213 279 310 199 173 212 209 176 170 173 142 137 136 136 144 132 117 118 119 103 99 153 215 216 69 173 189 203 240 205 186 204 215 213 204 204 204 201 200 199 199 198 194 190
325 311 310 312 309 300 292 302 312 318 318 315 339 47 161 121 37 61 41 330 312 339 356 19 344 358 60 78 97 36 57 71 29 80 123 157 164 126 76 155 138 174 189 200 191 222 249 219 189 236 207 179 184 186 134 120 175 208 192 171 162 150 146 162 172 183 226 228 39 146 180 197 246 241 162 215 226 224 212 209 207 200 194 194 193 188 185 185
321 316 320 317 313 309 309 309 309 314 311 299 333 106 139 74 49 17 292 307 9 348 335 37 358 4 86 115 92 11 23 63 17 47 76 45 128 120 78 60 133 191 149 192 205 217 219 200 181 199 195 189 195 204 188 153 174 194 193 188 186 170 161 172 173 193 240 229 87 126 165 221 252 176 73 256 250 247 231 220 214 204 196 192 185 174 172 180
330 333 331 329 332 334 333 320 303 304 312 301 148 99 63 66 32 298 286 309 314 316 351 18 6 49 66 72 352 318 61 54 21 42 82 95 105 117 102 77 85 165 80 180 208 224 223 210 187 187 179 174 189 215 216 153 163 187 190 198 196 181 173 169 186 206 213 155 120 136 171 241 237 126 7 313 283 262 239 224 212 205 199 189 179 170 166 177
349 355 353 360 5 358 348 332 317 311 314 51 95 53 60 66 295 275 314 307 286 312 352 23 95 92 78 27 7 1 39 42 32 41 56 80 91 84 89 34 25 93 147 198 185 168 255 270 201 184 187 175 184 200 178 147 168 174 174 201 207 188 172 140 190 206 134 121 140 172 216 278 225 159 353 331 318 259 217 209 198 197 194 182 175 174 173 179
8 19 28 20 6 356 352 350 338 318 306 65 69 54 56 27 285 242 314 317 316 321 316 12 48 60 70 15 30 39 25 32 47 53 52 62 65 52 354 290 354 201 206 215 196 153 258 256 138 72 216 196 195 181 170 190 187 139 177 197 180 172 170 142 145 99 123 205 169 192 232 234 173 214 38 22 21 60 165 190 186 187 186 180 177 178 179 177
20 42 44 13 358 349 356 7 342 320 321 76 74 62 338 294 222 220 290 314 309 328 310 101 25 27 55 25 25 18 13 52 62 63 75 45 24 35 336 296 244 268 275 263 230 192 274 268 214 200 204 198 246 180 176 206 166 148 193 172 116 35 281 150 191 150 196 223 170 195 236 233 189 215 64 46 38 54 120 173 177 179 181 182 182 178 176 172
21 68 53 6 357 353 8 359 341 336 55 67 70 86 279 334 272 240 295 320 257 9 48 74 27 351 226 117 69 356 330 178 63 62 96 41 34 53 330 320 194 281 309 261 225 151 249 269 259 172 206 117 89 178 177 181 204 271 191 156 145 201 195 166 212 189 189 215 187 195 242 252 222 215 62 50 43 55 116 159 171 176 181 185 184 180 175 171
38 80 75 356 357 1 4 348 342 11 76 56 58 89 313 305 300 273 296 351 196 15 38 50 28 50 95 115 113 16 349 76 78 63 89 32 52 137 331 327 254 323 353 222 206 126 209 278 168 132 248 332 163 193 196 178 170 13 160 182 205 250 191 176 192 205 190 199 201 191 216 234 217 172 65 57 36 68 157 158 167 175 182 186 185 183 173 161
40 45 195 347 348 341 338 348 5 47 62 59 45 24 346 305 315 331 330 14 14 3 32 32 357 56 74 45 124 68 35 56 71 67 63 23 94 154 329 314 302 338 353 264 212 141 160 271 271 138 179 224 183 192 219 190 170 183 191 195 200 187 189 183 160 247 215 192 194 206 214 205 145 128 169 160 120 157 152 154 164 167 170 173 173 169 153 136
33 41 5 341 337 318 325 4 45 43 50 92 28 290 347 346 339 346 349 14 46 31 42 70 55 45 57 57 50 38 55 59 47 68 89 62 51 157 62 66 308 318 316 208 112 19 193 194 270 302 287 220 189 67 292 259 214 199 199 199 198 183 170 191 192 165 235 216 191 223 225 156 105 166 197 169 157 153 138 149 158 154 152 147 142 142 134 126
54 61 358 348 347 327 346 32 61 28 63 71 17 294 325 356 353 347 348 1 34 52 59 71 62 40 34 28 22 25 65 62 28 33 85 63 45 290 359 10 287 261 274 221 80 344 272 151 255 280 286 282 304 30 67 271 296 142 188 199 196 186 187 207 206 166 166 208 65 256 244 122 110 180 195 178 143 131 139 147 141 141 152 151 140 132 129 130
52 13 329 357 360 336 56 54 19 18 39 336 339 296 325 3 9 355 355 3 8 21 45 45 29 44 44 17 1 44 40 42 32 25 59 78 59 319 324 334 301 207 198 157 145 159 209 103 329 281 284 301 271 97 102 142 154 101 54 39 238 237 236 227 216 166 181 186 153 202 224 138 147 195 205 170 123 120 143 149 145 148 149 152 149 140 135 140
32 246 297 358 5 341 102 60 16 22 24 341 17 24 2 33 32 17 16 13 6 357 19 35 32 37 37 14 59 56 14 32 61 23 31 95 35 358 327 339 344 337 8 4 284 230 200 353 340 267 179 135 142 140 125 101 28 35 31 7 329 296 138 125 99 153 198 185 161 215 223 127 137 187 201 164 132 135 153 153 151 146 136 141 146 143 145 152
1 183 250 358 24 48 90 74 45 74 42 11 32 17 357 41 47 24 27 23 16 355 0 31 9 6 26 35 70 55 23 37 73 15 1 59 348 328 338 346 358 13 10 0 327 291 4 16 300 238 188 145 143 133 96 356 336 331 350 354 348 338 204 164 142 188 212 170 146 227 223 123 147 188 187 165 144 143 144 140 138 129 124 130 131 137 148 157
346 98 284 339 29 50 80 63 26 81 93 45 55 14 0 28 24 321 37 48 29 19 30 27 338 336 36 36 58 54 27 28 68 79 37 358 329 323 330 331 358 6 3 20 8 314 130 62 23 71 86 98 108 22 319 295 323 350 3 3 1 349 320 296 188 198 190 158 174 221 144 148 176 194 175 159 155 149 137 130 133 131 127 127 123 131 142 152
34 110 11 327 25 40 78 67 28 38 138 165 70 4 357 3 348 336 24 51 28 19 46 41 15 16 32 19 57 57 19 19 48 53 26 340 304 295 304 291 350 357 350 1 1 330 129 87 45 72 91 106 110 57 347 338 46 26 16 15 13 5 340 266 229 193 145 163 195 176 157 163 178 185 170 157 159 151 138 138 141 139 133 126 119 120 126 132
29 145 27 320 284 37 56 27 14 38 71 82 117 16 6 26 33 23 10 16 20 11 25 44 21 16 7 322 92 55 2 24 46 18 358 357 326 323 333 322 7 5 358 8 10 4 117 100 10 133 125 118 102 70 46 61 91 42 30 29 22 17 12 336 315 354 119 227 211 160 170 176 169 171 165 155 156 148 136 139 141 138 132 124 120 121 126 127
36 110 95 330 324 131 45 341 336 64 55 46 61 39 20 44 54 46 339 353 31 14 20 61 18 8 16 29 103 74 12 39 62 25 358 4 342 358 16 0 5 8 7 27 33 19 152 92 351 262 166 109 65 38 43 61 106 43 31 30 25 27 36 33 24 26 19 353 108 150 161 156 153 163 154 143 150 141 132 137 142 144 141 132 131 131 128 127
24 89 16 6 68 80 15 352 319 116 45 23 57 49 25 40 49 66 1 11 37 12 20 86 60 3 24 44 69 79 34 333 63 28 331 340 357 17 25 337 325 355 9 25 22 354 340 106 353 309 184 92 38 20 23 39 115 50 27 21 18 23 35 36 34 26 23 45 117 139 143 136 144 150 136 131 140 134 134 143 147 150 146 136 133 128 123 120
11 28 326 139 85 0 355 38 39 110 60 27 101 117 154 106 50 69 64 30 43 32 18 98 106 341 13 44 50 47 16 241 253 315 292 268 346 352 9 13 282 330 9 21 353 350 2 24 11 345 196 127 35 21 13 9 130 49 26 16 9 10 16 19 17 359 349 135 139 140 150 154 150 144 134 135 140 138 142 151 153 153 147 139 136 129 122 115
0 159 17 210 131 359 358 84 42 110 100 35 133 156 119 110 192 193 103 74 45 54 36 215 159 22 27 38 30 8 334 252 254 314 285 179 70 44 37 57 51 16 10 11 5 4 357 1 19 314 209 159 14 6 8 359 324 359 20 9 1 10 6 342 19 22 9 153 154 161 169 151 147 144 141 144 147 148 153 156 155 152 146 140 136 130 121 113
Height
805 804 803 802 801 800 800 799 798 797 797 796 794 793 792 791 790 789 789 788 787 786 786 785 784 783 783 782 781 781 780 779 779 779 776 769 769 772 773 774 776 777 779 780 783 785 787 789 790 791 792 793 794 795 795 795 795 800 808 816 818 817 816 812 810 810 810 810 811 810 807 811 817 815 811 811 815 818 821 821 819 819 819 821 825 829 832 836
805 804 802 801 801 800 799 798 797 797 796 795 794 793 792 791 790 789 788 787 786 786 785 784 783 783 782 782 781 780 780 778 778 775 769 766 768 770 772 774 775 776 778 780 782 783 786 789 789 790 792 794 796 795 797 796 797 803 810 816 815 810 808 805 804 806 806 808 810 810 808 809 814 814 811 816 823 821 825 826 823 825 825 825 827 831 834 836
804 803 802 801 800 799 798 797 797 796 795 794 793 792 791 790 789 788 787 786 786 785 784 783 783 782 782 781 781 780 780 778 776 770 764 764 767 768 771 773 774 776 777 779 781 782 784 786 788 790 792 797 797 797 801 799 799 803 807 815 812 806 804 802 803 804 803 805 809 811 808 810 812 810 811 818 824 824 827 827 826 830 829 828 829 831 834 836
803 802 801 800 799 798 797 797 796 795 794 793 792 791 791 789 788 787 786 786 785 784 783 783 782 782 781 781 781 780 780 778 773 766 764 764 765 768 770 772 773 776 778 779 782 783 784 786 788 789 793 799 798 798 803 801 801 803 805 811 809 805 806 804 803 802 802 803 807 810 810 814 812 809 813 818 825 829 826 822 823 826 826 826 828 831 834 836
802 801 800 800 798 797 796 796 795 794 793 792 792 791 790 789 788 787 786 785 785 784 783 782 782 781 781 780 781 780 780 780 771 764 765 765 765 767 769 771 773 776 778 780 782 784 786 787 788 790 795 800 801 802 804 799 798 804 803 803 804 805 806 804 802 802 802 804 807 810 813 814 812 812 815 817 825 827 822 819 819 820 822 824 826 830 834 836
802 801 800 799 798 797 795 795 794 793 792 791 791 790 789 788 787 786 785 784 784 783 783 782 781 781 781 781 781 780 780 778 768 764 765 764 765 767 769 771 773 776 778 780 782 784 786 787 790 795 798 801 804 804 803 797 797 805 804 799 800 801 803 804 803 803 802 805 809 810 811 811 814 819 817 818 822 820 816 816 818 820 822 823 826 829 833 835
801 800 799 798 797 796 795 794 792 792 791 790 790 789 788 787 786 785 784 784 783 783 782 781 781 781 781 781 781 780 781 775 766 765 765 763 764 766 769 771 773 776 778 780 782 784 786 789 792 795 799 803 804 803 802 799 798 806 807 801 801 800 801 802 803 804 802 805 808 806 809 812 817 821 818 820 821 817 815 816 818 821 823 826 827 829 833 835
800 800 798 798 796 795 794 793 791 790 790 789 788 787 787 786 785 784 783 783 782 782 782 781 781 781 781 781 781 780 779 772 766 766 764 763 764 765 769 772 774 776 777 780 781 783 786 790 793 794 801 803 801 801 800 801 803 806 806 802 801 802 802 802 803 805 805 806 806 806 812 815 815 817 820 822 820 816 816 817 820 822 825 828 829 830 833 836
800 799 798 797 796 795 794 792 791 789 789 788 787 786 786 785 784 783 783 782 782 782 781 781 781 781 781 781 781 780 775 769 766 766 764 764 765 767 769 771 774 776 777 781 781 783 786 790 792 791 798 800 799 801 799 805 809 803 803 803 802 804 804 804 806 807 808 808 807 811 818 818 813 815 822 823 818 817 817 819 821 823 827 829 830 832 833 835
799 798 798 797 795 794 793 791 790 789 788 787 786 785 785 784 783 783 782 782 781 781 781 781 781 781 782 781 781 780 772 767 767 766 765 766 766 768 771 772 774 776 778 781 782 783 784 787 788 787 793 797 799 801 799 804 805 797 800 805 804 806 807 807 811 810 811 811 809 814 820 819 814 817 826 823 817 817 819 823 824 825 829 830 831 832 834 836
799 798 797 796 795 794 792 790 789 788 787 786 785 784 783 783 782 782 781 781 781 781 781 781 781 782 783 781 782 778 770 768 768 766 767 768 768 769 771 773 775 776 778 781 783 783 784 785 785 787 795 798 799 801 800 799 797 796 801 808 810 810 811 812 814 813 813 815 812 813 819 821 817 820 825 822 817 818 821 826 826 827 830 830 831 832 834 836
798 797 796 795 794 793 791 790 788 787 786 785 784 783 782 782 781 781 781 781 780 780 781 781 782 783 783 782 780 774 768 769 769 768 769 769 770 771 772 775 776 777 778 780 783 784 785 785 784 791 796 796 799 804 802 795 795 798 800 811 817 812 815 817 817 816 816 819 814 813 825 829 824 824 822 818 818 819 823 827 828 829 830 831 832 832 835 836
798 797 796 795 793 792 790 788 787 786 785 784 783 782 781 781 781 781 781 781 780 780 781 782 782 783 784 780 773 769 768 769 769 769 770 771 772 773 774 776 777 779 780 780 783 783 785 785 786 791 792 795 801 801 797 794 795 801 801 809 817 818 822 819 817 818 818 821 814 818 837 838 828 824 821 818 819 821 826 828 828 830 831 832 832 833 835 836
797 796 795 793 792 791 789 788 786 785 783 783 782 781 781 780 781 781 781 781 780 781 781 782 783 783 784 777 768 768 768 768 770 770 771 772 772 774 776 777 779 780 781 782 783 784 785 786 786 790 791 795 798 795 797 799 798 803 808 810 814 823 827 819 817 821 822 822 814 822 840 838 829 825 821 819 819 822 827 828 829 830 831 832 833 834 835 835
796 795 794 792 791 790 788 787 785 784 782 781 781 781 780 780 780 780 781 781 781 781 781 783 783 783 783 775 767 768 768 768 770 770 771 772 773 775 776 778 780 780 782 782 783 784 786 787 789 793 795 793 794 799 805 806 803 805 815 821 818 822 827 822 819 821 823 823 817 825 840 836 829 826 821 820 821 822 827 829 829 830 831 832 833 834 835 835
796 794 793 792 790 789 787 786 784 783 781 780 780 780 780 780 781 781 781 781 782 782 783 784 783 784 783 774 767 767 768 768 769 769 771 772 773 775 776 778 780 781 783 783 783 785 786 788 790 794 796 796 799 804 808 812 814 810 814 823 821 822 829 829 823 819 820 823 822 826 836 836 830 826 823 821 822 824 826 829 829 831 831 832 833 834 835 836
795 794 792 791 789 788 787 785 784 782 781 780 780 780 780 781 781 781 782 782 783 783 783 784 783 784 779 769 768 769 768 768 769 769 771 772 774 774 776 779 780 782 783 783 785 785 787 790 793 795 797 801 802 803 812 822 822 817 814 818 819 821 826 830 828 820 817 823 826 826 830 832 829 826 825 823 822 825 827 829 829 830 832 832 833 834 835 836
794 793 791 790 788 787 786 784 783 782 781 780 780 780 781 781 781 782 782 782 783 784 784 784 783 785 779 769 770 770 768 768 769 769 771 773 774 775 776 778 780 782 785 787 787 787 790 792 795 800 802 804 804 805 814 819 815 817 819 818 819 820 822 825 824 818 816 823 827 828 829 829 827 826 826 824 823 825 826 827 829 830 831 832 833 834 835 836
794 792 790 789 788 786 785 784 783 782 781 780 780 781 781 781 781 782 783 784 784 782 782 781 780 781 779 772 769 768 766 768 769 770 771 772 774 776 777 778 780 783 788 792 793 792 792 796 801 806 806 805 805 804 807 808 805 809 813 815 818 820 821 819 816 813 813 822 826 826 827 827 828 828 827 826 824 826 827 827 829 830 831 832 833 834 835 835
793 791 789 788 787 786 784 783 783 782 781 781 781 781 781 782 783 782 783 782 780 777 775 776 776 776 774 770 768 767 766 767 768 770 771 772 774 776 778 780 783 786 790 793 796 793 792 801 807 805 805 804 803 802 802 802 802 805 810 813 814 816 819 816 814 812 809 818 825 821 823 825 826 828 826 826 826 827 828 828 829 830 831 832 833 833 834 834
792 790 789 787 786 785 784 783 782 782 781 781 781 781 782 783 785 784 781 778 775 772 773 773 773 773 770 768 768 767 767 768 768 769 772 772 772 778 783 784 787 791 793 792 795 794 795 805 805 799 801 801 801 802 801 801 803 807 811 818 820 816 816 814 812 811 807 816 823 820 823 826 825 826 826 825 828 828 825 827 829 829 831 831 832 833 833 832
791 789 788 787 786 785 783 782 782 782 781 781 781 781 780 781 782 781 779 779 774 770 773 772 772 772 767 767 767 766 770 772 772 772 771 772 774 779 785 786 789 793 794 793 796 801 804 805 799 798 801 801 803 803 802 803 804 807 811 828 837 821 814 817 812 810 809 815 823 822 825 827 824 823 824 824 826 825 822 821 824 827 830 831 831 832 832 832
790 788 787 786 785 784 782 781 781 781 781 781 781 780 780 778 778 777 779 782 778 771 771 772 772 771 767 766 765 766 770 772 775 775 771 772 776 779 783 787 791 793 794 793 797 806 810 802 795 798 801 801 804 804 803 804 805 807 810 826 836 821 815 821 817 813 811 813 820 822 826 828 825 824 824 823 823 824 823 821 822 824 826 828 828 829 830 831
788 786 786 785 784 783 781 781 781 781 780 780 780 779 778 777 777 777 778 783 783 774 769 770 769 768 767 765 763 767 770 770 772 773 770 772 777 779 781 786 790 793 794 792 794 801 804 799 795 799 801 800 804 806 805 806 807 809 808 814 820 817 816 816 815 815 814 816 816 822 835 835 828 830 828 823 823 825 825 824 825 825 824 825 826 827 828 828
787 786 785 784 784 783 781 781 780 779 779 779 778 777 777 776 775 776 778 785 786 775 768 769 768 767 764 764 765 765 767 769 768 768 767 769 774 779 782 784 787 795 799 795 795 798 798 796 795 800 803 801 803 805 805 805 807 810 807 805 807 810 813 814 814 818 826 831 819 820 843 841 826 830 829 824 826 827 825 825 826 826 825 826 827 827 826 826
786 785 783 783 783 782 781 780 779 779 779 777 777 776 776 776 775 775 780 789 789 779 772 770 770 768 764 765 766 763 771 774 766 764 766 767 768 773 783 785 785 794 798 793 795 797 796 795 795 798 801 803 804 805 804 803 808 811 804 799 801 803 809 814 814 818 827 831 816 813 833 837 828 828 825 824 828 827 827 826 824 824 825 825 826 825 825 825
785 783 783 782 781 781 781 778 779 779 777 776 776 775 775 775 775 774 781 797 797 784 777 773 770 768 765 766 764 767 780 777 767 767 766 767 768 768 781 788 787 791 791 793 801 799 795 797 799 798 800 803 804 804 803 801 806 809 801 798 801 802 808 811 811 816 818 818 819 815 820 832 832 823 817 821 828 828 828 828 824 821 821 823 824 823 823 823
783 782 782 781 780 780 778 778 778 776 776 776 775 775 776 774 775 776 788 809 803 782 776 773 766 765 763 764 764 769 775 772 773 775 765 765 770 769 780 785 785 789 787 793 805 800 793 797 799 798 800 803 801 799 798 799 803 803 798 799 800 801 805 806 810 816 814 820 834 827 820 832 832 818 814 820 827 830 827 826 824 820 818 819 821 821 821 821
782 781 780 780 779 778 777 777 776 775 775 775 774 775 774 773 776 779 794 811 799 778 776 772 766 766 766 766 768 769 769 770 776 774 765 767 769 769 779 781 781 788 788 790 797 795 792 792 791 793 799 799 796 795 794 797 800 797 797 799 800 802 805 807 813 816 819 829 835 827 822 831 829 819 820 825 827 825 819 818 819 817 816 815 817 819 819 820
781 780 779 779 778 777 777 776 774 775 774 773 775 774 773 775 779 791 808 809 794 781 776 772 771 772 771 772 774 773 772 773 773 770 770 772 769 769 776 778 779 786 790 791 792 791 790 789 788 790 792 791 790 793 793 795 795 794 797 801 806 809 808 813 814 816 830 837 827 818 818 827 830 822 818 818 814 809 809 813 813 812 813 813 814 815 816 818
780 779 778 777 776 776 776 775 773 774 773 773 773 771 774 779 784 803 816 802 790 786 777 776 777 774 774 777 779 776 775 775 774 774 776 777 775 777 780 782 784 790 796 796 794 793 791 792 791 786 785 786 789 793 795 795 794 796 800 803 814 821 820 827 826 826 842 841 824 816 814 825 834 821 809 806 800 798 802 806 807 808 810 810 811 811 812 814
779 778 777 776 775 775 774 774 772 773 772 771 772 772 778 788 796 809 809 794 792 791 782 782 782 777 778 779 780 780 779 779 778 778 782 783 783 784 787 790 791 799 808 804 799 798 793 790 789 785 782 783 790 795 798 799 798 800 803 805 820 836 841 848 846 841 843 833 821 816 816 827 826 809 804 803 797 796 796 796 798 801 804 805 807 808 810 812
777 776 776 775 774 774 773 773 771 772 771 770 772 773 779 797 809 809 802 795 795 788 781 784 783 780 781 780 783 783 781 783 782 782 785 785 787 789 791 791 789 797 807 806 804 803 798 792 788 789 786 781 786 794 799 803 802 803 805 807 820 838 853 864 858 849 841 827 817 814 820 829 817 803 804 802 797 794 791 790 791 793 796 800 802 805 808 810
776 775 775 774 774 773 772 771 770 770 770 769 772 776 787 806 811 803 798 795 790 784 783 787 784 783 783 784 787 784 783 787 785 784 786 786 791 794 792 791 790 790 796 804 805 804 809 804 790 787 787 781 783 786 787 793 799 799 796 799 810 820 836 851 850 842 836 828 824 822 825 824 814 806 803 797 794 792 789 788 787 789 792 795 799 802 806 809
775 775 775 773 773 773 771 771 770 769 770 769 773 784 800 813 810 803 798 791 787 785 785 787 785 785 787 787 787 784 783 788 787 786 788 790 795 798 794 792 791 789 794 804 805 803 811 805 784 780 783 779 780 779 777 787 798 798 793 799 807 802 806 823 828 823 823 829 834 830 820 809 803 803 798 793 793 790 789 788 787 790 791 793 799 802 804 807
775 775 775 774 773 772 771 771 770 769 769 769 780 797 805 804 802 800 794 786 787 787 786 787 786 789 792 789 789 787 782 785 789 790 793 796 797 797 797 793 790 790 791 798 802 803 809 800 782 782 783 777 777 776 775 784 794 799 800 802 800 789 792 812 823 820 821 830 833 827 816 804 802 802 796 794 795 791 791 789 788 790 791 793 798 799 802 805
775 775 775 774 773 772 771 771 770 770 769 771 787 802 802 795 792 792 788 784 786 786 787 792 792 795 798 795 793 790 784 786 790 791 797 801 798 796 797 792 790 790 788 791 796 798 803 798 783 782 784 777 775 776 776 776 782 795 800 793 790 793 794 804 821 829 833 835 830 823 818 812 812 809 799 797 799 797 794 790 789 791 791 794 796 797 800 803
774 774 775 775 774 773 771 771 770 769 770 779 794 801 798 793 789 787 786 785 785 785 789 796 796 797 800 799 797 794 790 790 792 794 798 801 800 797 796 793 790 789 788 789 792 793 799 800 787 781 783 779 775 779 784 781 777 784 787 780 786 804 807 807 819 828 835 839 832 824 823 817 810 806 802 804 805 802 798 794 792 793 792 794 795 796 799 801
774 776 778 777 774 773 772 771 770 769 774 789 800 800 796 792 786 785 785 785 786 786 791 796 796 796 798 798 797 796 794 794 795 798 800 802 802 796 794 794 791 788 788 788 791 792 796 802 796 783 781 782 778 781 787 787 783 781 782 781 784 793 798 802 807 808 819 835 833 828 830 818 804 803 807 808 807 803 800 798 796 794 793 793 793 795 797 801
775 779 781 777 775 775 773 771 771 775 784 796 801 798 796 792 785 783 783 784 785 786 791 796 795 795 797 797 796 796 796 797 797 799 801 802 802 796 792 794 792 789 789 789 790 791 794 803 801 786 781 784 784 782 781 781 783 785 787 790 790 790 789 794 801 800 806 823 827 828 828 814 802 806 808 806 806 803 800 799 799 797 795 794 793 794 797 801
777 783 783 776 775 775 773 774 781 787 793 798 799 796 793 790 786 784 783 782 784 785 787 792 793 795 797 796 796 795 796 799 799 800 801 800 801 800 793 793 795 792 790 789 790 792 795 800 801 793 786 785 782 780 779 778 778 779 782 784 786 789 791 800 812 808 802 809 815 817 817 809 804 806 804 802 803 802 800 801 801 799 798 798 796 796 798 801
780 787 784 776 776 775 774 783 793 796 794 795 796 795 791 789 788 788 785 783 784 784 785 789 793 795 797 796 796 796 796 800 802 801 801 800 800 799 793 791 795 793 790 791 792 790 791 797 802 797 788 783 780 778 781 782 779 777 777 778 778 780 785 795 808 808 805 809 810 809 811 808 806 804 801 801 801 800 801 801 801 802 800 799 798 798 799 801
784 786 781 776 776 774 778 790 795 795 795 794 794 793 792 792 791 790 789 788 787 786 786 790 792 794 796 796 796 797 798 801 804 802 801 802 798 795 793 792 793 792 789 791 793 790 792 800 804 798 788 781 777 777 779 780 780 781 781 782 783 784 782 784 790 793 799 807 807 809 815 813 807 803 801 802 802 802 803 802 802 803 801 800 800 800 801 803
787 786 781 778 776 774 783 795 797 796 797 795 793 794 792 792 793 792 793 793 792 791 791 792 793 793 795 796 796 798 800 801 805 804 802 802 797 792 792 791 791 790 789 790 791 790 795 805 807 803 801 797 790 787 786 782 783 788 791 789 788 788 786 785 788 790 796 804 804 804 811 812 807 804 804 804 804 805 805 803 802 803 803 803 802 802 804 805
788 788 785 781 776 777 787 796 796 797 799 798 798 799 797 795 794 794 795 795 795 795 795 794 794 793 794 796 797 799 798 798 803 805 803 802 797 792 791 791 790 790 789 789 788 788 796 808 808 805 809 814 813 809 806 801 796 794 794 793 790 790 788 786 790 795 800 809 806 800 807 815 810 807 807 805 806 808 807 805 804 805 806 805 804 805 805 806
788 790 790 785 781 783 792 796 795 796 798 800 802 804 803 800 797 794 795 796 796 795 796 797 796 794 794 796 799 802 801 799 801 804 805 804 798 794 792 791 790 789 788 789 788 789 797 807 808 804 806 813 817 815 809 807 806 802 799 797 793 793 793 789 789 792 795 805 807 801 805 816 815 811 810 807 808 810 810 809 809 808 808 807 807 807 807 807
790 795 797 794 790 790 793 796 798 798 799 801 804 806 806 805 801 797 794 796 797 796 797 799 799 799 800 801 802 805 806 803 802 805 808 807 802 797 794 791 790 789 787 788 788 789 797 807 808 806 807 808 809 809 804 802 806 807 804 801 796 795 796 792 788 787 788 796 804 804 804 809 810 809 808 808 809 811 811 811 810 809 809 809 809 809 809 810
794 798 801 799 799 799 798 798 801 801 800 801 805 808 808 807 806 804 800 797 797 797 798 802 804 804 805 805 805 808 810 808 807 809 809 809 806 800 795 792 790 789 788 789 789 790 798 806 807 806 807 805 804 804 800 799 804 806 804 802 799 798 799 797 795 793 790 790 795 800 803 803 802 803 805 806 808 809 810 810 809 809 809 809 811 811 812 812
796 799 801 800 800 802 803 803 803 802 801 802 805 808 809 808 809 809 807 802 801 801 802 807 810 807 806 805 804 810 814 812 812 813 810 810 809 805 803 799 793 789 789 791 793 795 799 805 807 807 804 801 803 801 795 797 802 802 800 800 799 799 800 802 804 802 798 797 795 796 801 800 797 799 803 804 805 806 808 809 808 809 810 811 812 813 812 813
798 800 801 800 801 803 804 804 801 800 802 804 806 809 811 810 810 809 808 807 808 806 804 808 811 809 807 805 804 809 813 811 812 813 811 811 810 808 808 806 800 794 792 795 798 796 798 806 810 808 802 801 803 798 792 796 800 799 799 800 799 799 800 802 805 804 805 806 801 798 803 803 798 798 802 804 806 807 809 810 810 809 810 811 813 813 813 813
801 802 802 800 801 804 805 805 803 802 803 805 807 809 810 810 810 810 808 809 810 808 806 807 809 808 807 806 806 808 810 809 809 808 807 808 808 807 806 805 804 800 798 801 803 799 799 805 807 805 806 807 807 802 796 794 794 797 803 807 806 806 806 806 807 807 808 809 807 806 807 805 801 800 803 806 808 809 810 811 810 810 810 812 814 815 815 815
802 802 802 800 802 806 806 805 805 805 805 807 808 809 809 808 808 810 810 809 808 808 808 808 807 807 807 808 808 806 805 805 806 805 805 806 806 806 805 804 804 803 802 804 807 809 809 806 807 810 811 812 814 809 799 797 803 809 811 813 812 811 809 809 809 808 806 805 807 808 804 801 800 800 805 809 810 810 811 810 810 811 812 814 815 815 816 817